Home > Weather > Gorgan > Past weeks

Flag for Iran Weather for the Past 2 Weeks in Gorgan, Iran

Now
79 °F

Sunny.


Feels Like: 81 °F
Forecast: 69 / 82 °F
Wind: No wind

Location: Gorgan Airport

Current Time: May 5, 2016 at 4:06:59 PM

Latest Report: May 5, 2016 at 3:30 PM


Visibility: 10 mi

Pressure: 29.77 "Hg

Humidity: 61%

Dew Point: 64 °F

Location of GorganLocation

Historic Weather in Gorgan — Graph

°F

Gorgan Temperature Yesterday

Maximum temperature yesterday: 86 °F (at 3:30 PM)
Minimum temperature yesterday: 54 °F (at 4:30 AM)
Average temperature yesterday: 67 °F

High & Low Weather Summary for the Past Weeks

 TemperatureHumidityPressure
High97 °F (Apr 26, 2:30 PM)100% (Apr 21, 3:30 AM)30.42 "Hg (Apr 21, 3:30 AM)
Low45 °F (Apr 21, 3:30 AM)27% (Apr 26, 2:30 PM)29.59 "Hg (May 5, 2:30 AM)
Average65 °F82%29.96 "Hg
* Reported Apr 20 2:30 PM — May 5 2:30 PM, Gorgan, Weather by CustomWeather, © 2016

Note: Actual official high and low records may vary slightly from our data, if they occured in-between our weather recording intervals... More about our weather records

Advertising

Gorgan Weather History for the Previous 24 Hours

Scroll right to see more
 ConditionsComfort  
Time TempWeatherWind HumidityBarometerVisibility
2:30 PM
Thu, May 5
77 °FScattered clouds.No wind65%29.80 "HgN/A
1:30 PM73 °FPartly sunny.No wind69%29.80 "HgN/A
1:00 PM72 °FScattered clouds.No wind69%29.80 "HgN/A
12:30 PM73 °FScattered clouds.No wind69%29.83 "HgN/A
12:00 PM73 °FScattered clouds.9 mph69%29.83 "HgN/A
11:30 AM70 °FScattered clouds.12 mph78%29.83 "HgN/A
11:00 AM68 °FScattered clouds.12 mph83%29.83 "HgN/A
10:30 AM68 °FScattered clouds.14 mph83%29.83 "HgN/A
9:30 AM66 °FBroken clouds.14 mph88%29.83 "Hg5 mi
9:00 AM66 °FPartly sunny.18 mph88%29.83 "Hg4 mi
8:30 AM64 °FFog.12 mph94%29.83 "Hg2 mi
7:30 AM64 °FFog.5 mph100%29.77 "Hg2 mi
6:30 AM64 °FDrizzle. Fog.7 mph100%29.77 "Hg2 mi
5:30 AM64 °FPartly cloudy.14 mph94%29.74 "Hg4 mi
4:30 AM64 °FPassing clouds.18 mph100%29.71 "HgN/A
3:30 AM61 °FClear.16 mph100%29.68 "Hg10 mi
2:30 AM59 °FClear.7 mph100%29.59 "Hg10 mi
1:30 AM61 °FClear.No wind100%29.62 "Hg10 mi
12:30 AM59 °FClear.5 mph100%29.65 "Hg10 mi
11:30 PM
Wed, May 4
61 °FClear.7 mph100%29.65 "Hg10 mi
10:30 PM63 °FPassing clouds.7 mph100%29.68 "HgN/A
9:30 PM64 °FPassing clouds.5 mph88%29.68 "HgN/A
9:00 PM64 °FScattered clouds.7 mph94%29.68 "HgN/A
8:30 PM64 °FBroken clouds.7 mph94%29.68 "HgN/A
7:30 PM68 °FBroken clouds.12 mph83%29.68 "HgN/A
6:30 PM72 °FBroken clouds.18 mph78%29.68 "HgN/A
5:30 PM79 °FPartly sunny.14 mph65%29.65 "HgN/A
4:30 PM84 °FPartly sunny.5 mph48%29.62 "HgN/A
Weather by CustomWeather, © 2016

See weather overviewHow to use our weather pages